User: anonymous   Login
Location: Mascot Post Office (historical)
(40.2645°N, 99.5462°W)
Time: 23:48:22
(UTC+00:00)
Language:

Cosmos 1606 - Orbit

View from above orbital plane
View from above orbital plane
View from above satellite
View from above satellite

Ground track
Ground track

The orbit data is extracted from the following two-line orbital elements,

1 15369U 84111A   20271.45089714 +.00000983 +00000-0 +48242-4 0  9993
2 15369 082.5307 022.6542 0018776 062.5427 297.7712 15.16760663962033
Epoch (UTC): 27 September 2020 10:49:17
Eccentricity: 0.0018776
inclination: 82.5307°
perigee height: 503 km
apogee height: 528 km
right ascension of ascending node: 22.6542°
argument of perigee: 62.5427°
revolutions per day: 15.16760663
mean anomaly at epoch: 297.7712°
orbit number at epoch: 96203

The dashed part of the orbit path shows where the satellite is in the earth's shadow,  

DLR